Flag for Norway Weather past 2 weeks in Kopervik, Norway

Now
54 °F

Light rain. Broken clouds.


Feels Like: 48 °F
Forecast: 49 / 54 °F
Wind: 21 mph from Southeast

Location: Haugesund / Karmoy

Current Time: Oct 21, 2014 at 2:28:46 PM

Latest Report: Oct 21, 2014 at 1:50 PM


Visibility: N/A

Pressure: 29.18 "Hg

Humidity: 82%

Dew point: 48 °F

Location of KopervikLocation

Historic Weather in Kopervik — Graph

°F

Kopervik temperature yesterday

Maximum temperature yesterday: 55 °F (at 12:20 AM)
Minimum temperature yesterday: 48 °F (at 9:50 PM)
Average temperature yesterday: 53 °F

Past Weeks' High & Low Weather Summary

 TemperatureHumidityPressure
High61 °F (Oct 6, 1:20 PM)100% (Oct 12, 4:50 AM)30.01 "Hg (Oct 12, 4:50 AM)
Low34 °F (Oct 17, 8:50 AM)41% (Oct 7, 1:50 PM)29.18 "Hg (Oct 8, 4:50 AM)
Average51 °F77%29.67 "Hg
* Reported Oct 6 1:20 PM — Oct 21 1:20 PM, Kopervik, Weather by CustomWeather, © 2014

Note: Actual official high and low records may vary slightly from our data, if they occured in-between our weather recording intervals... More about our weather records

Advertising

Kopervik weather history for previous 24 hours

 ConditionsComfort  
Time TempWeatherWind HumidityBarometerVisibility
1:20 PM
Oct 21
54 °FSprinkles. Broken clouds.23 mph82%29.21 "HgN/A
12:50 PM54 °FScattered showers. Broken clouds.21 mph77%29.21 "HgN/A
12:20 PM54 °FBroken clouds.22 mph82%29.24 "HgN/A
11:50 AM52 °FPartly sunny.21 mph82%29.24 "HgN/A
11:20 AM54 °FPartly sunny.22 mph77%29.24 "HgN/A
10:50 AM52 °FPartly sunny.21 mph82%29.27 "HgN/A
10:20 AM52 °FBroken clouds.22 mph88%29.27 "HgN/A
9:50 AM52 °FPartly sunny.21 mph88%29.30 "HgN/A
9:20 AM52 °FLight rain. Partly cloudy.21 mph88%29.30 "Hg3 mi
8:50 AM52 °FLight rain. Partly cloudy.21 mph88%29.33 "Hg6 mi
7:50 AM50 °FPassing clouds.17 mph94%29.36 "HgN/A
7:20 AM50 °FPartly cloudy.18 mph94%29.36 "Hg4 mi
6:50 AM50 °FPartly cloudy.20 mph94%29.39 "HgN/A
6:20 AM50 °FPartly cloudy.17 mph94%29.39 "HgN/A
5:50 AM50 °FPartly cloudy.18 mph94%29.42 "HgN/A
4:50 AM50 °FSprinkles. Partly cloudy.17 mph94%29.45 "Hg5 mi
4:20 AM50 °FDrizzle. Low clouds.14 mph94%29.47 "Hg3 mi
3:50 AM50 °FMostly cloudy.15 mph94%29.47 "HgN/A
3:20 AM50 °FOvercast.14 mph94%29.50 "HgN/A
2:50 AM50 °FSprinkles. Mostly cloudy.14 mph94%29.50 "Hg6 mi
2:20 AM50 °FPassing clouds.12 mph94%29.53 "Hg6 mi
1:50 AM50 °FOvercast.10 mph88%29.53 "HgN/A
1:20 AM50 °FOvercast.10 mph88%29.53 "HgN/A
12:50 AM50 °FOvercast.10 mph88%29.56 "HgN/A
12:20 AM48 °FOvercast.10 mph94%29.56 "HgN/A
11:50 PM
Oct 20
48 °FPartly cloudy.8 mph94%29.56 "HgN/A
11:20 PM48 °FDrizzle. Mostly cloudy.9 mph94%29.59 "HgN/A
10:50 PM48 °FMostly cloudy.8 mph94%29.59 "HgN/A
10:20 PM48 °FPartly cloudy.5 mph87%29.59 "HgN/A
9:50 PM48 °FPassing clouds.3 mph87%29.59 "HgN/A
9:20 PM52 °FPartly cloudy.7 mph77%29.59 "HgN/A
8:50 PM52 °FPartly cloudy.8 mph77%29.59 "HgN/A
8:20 PM52 °FPartly cloudy.10 mph77%29.59 "HgN/A
7:50 PM52 °FPassing clouds.12 mph77%29.62 "HgN/A
7:20 PM52 °FPassing clouds.14 mph77%29.62 "HgN/A
6:50 PM52 °FScattered clouds.18 mph77%29.62 "HgN/A
6:20 PM52 °FBroken clouds.17 mph77%29.62 "HgN/A
5:50 PM54 °FBroken clouds.20 mph77%29.59 "HgN/A
5:20 PM54 °FBroken clouds.18 mph77%29.59 "HgN/A
4:50 PM52 °FBroken clouds.21 mph82%29.59 "HgN/A
4:20 PM54 °FBroken clouds.21 mph77%29.59 "HgN/A
3:50 PM54 °FBroken clouds.22 mph82%29.59 "HgN/A
3:20 PM54 °FBroken clouds.20 mph82%29.56 "Hg6 mi
2:50 PM52 °FSprinkles. Broken clouds.18 mph94%29.56 "HgN/A
2:20 PM52 °FDrizzle. Mostly cloudy.24 mph94%29.56 "Hg3 mi
Weather by CustomWeather, © 2014

See weather overviewHow to use our weather pages